GW0587 Weather Reports


time (UTC)temp
F
wind
direction
speed
knots
gust
knots
rain 1hr
in
rain 24hr
in
rain mn
in
humidity
%
barometer
mb
20260510180100 82 0 0.9 2.6 0.00 0.00 0.00 52 1016.5
20260510174547 82 0 0.0 2.6 0.00 0.00 0.00 54 1016.5
20260510173047 82 5 0.9 3.5 0.00 0.00 0.00 52 1016.7
20260510171543 81 40 0.9 3.5 0.00 0.00 0.00 56 1017.0
20260510170048 82 340 0.0 2.6 0.00 0.00 0.00 55 1016.9
20260510164550 81 214 0.0 2.6 0.00 0.00 0.00 61 1017.0
20260510163041 80 0 0.0 2.6 0.00 0.00 0.00 59 1017.0
20260510161547 80 0 0.9 4.3 0.00 0.00 0.00 61 1017.0
20260510160045 80 214 0.0 1.7 0.00 0.00 0.00 63 1017.0
20260510154550 81 199 0.0 2.6 0.00 0.00 0.00 61 1017.0
20260510153041 81 168 0.9 4.3 0.00 0.00 0.00 61 1016.8
20260510151557 79 100 0.0 3.5 0.00 0.00 0.00 64 1016.8
20260510150045 79 0 0.0 1.7 0.00 0.00 0.00 65 1016.8
20260510144602 77 0 0.9 3.5 0.00 0.00 0.00 69 1017.0
20260510143056 76 0 0.0 3.5 0.00 0.00 0.00 72 1017.0
20260510141546 76 0 0.0 1.7 0.00 0.00 0.00 73 1016.7
20260510140049 74 279 0.0 2.6 0.00 0.00 0.00 76 1016.6
20260510134545 72 302 1.7 6.1 0.00 0.00 0.00 78 1016.5
20260510133040 70 271 0.0 3.5 0.00 0.00 0.00 83 1016.7
20260510131549 68 0 0.0 2.6 0.00 0.00 0.00 84 1016.5
20260510130051 67 0 0.0 0.0 0.00 0.00 0.00 86 1016.4
20260510124542 65 0 0.0 0.0 0.00 0.00 0.00 88 1016.4
20260510123046 64 0 0.0 0.0 0.00 0.00 0.00 89 1016.5
20260510121541 62 0 0.0 0.0 0.00 0.00 0.00 91 1016.3
20260510120052 60 0 0.0 0.0 0.00 0.00 0.00 91 1016.2
20260510114546 59 0 0.0 0.0 0.00 0.00 0.00 91 1016.2
20260510113052 59 0 0.0 0.0 0.00 0.00 0.00 90 1016.2
20260510111542 58 0 0.0 0.0 0.00 0.00 0.00 90 1015.9
20260510110047 58 0 0.0 0.0 0.00 0.00 0.00 89 1015.7
20260510104547 58 0 0.0 0.0 0.00 0.00 0.00 89 1015.4
20260510103049 59 0 0.0 0.0 0.00 0.00 0.00 89 1015.1
20260510101555 59 0 0.0 0.0 0.00 0.00 0.00 88 1014.9
20260510100047 59 0 0.0 0.0 0.00 0.00 0.00 88 1014.9
20260510094546 59 0 0.0 0.0 0.00 0.00 0.00 87 1014.8
20260510093045 59 0 0.0 0.0 0.00 0.00 0.00 87 1014.5
20260510091548 59 0 0.0 0.0 0.00 0.00 0.00 87 1014.4
20260510090056 59 0 0.0 0.0 0.00 0.00 0.00 86 1014.1
20260510084545 59 0 0.0 0.0 0.00 0.00 0.00 85 1014.0
20260510083042 59 0 0.0 0.0 0.00 0.00 0.00 85 1014.1
20260510081542 59 0 0.0 0.0 0.00 0.00 0.00 84 1014.0
20260510080052 59 0 0.0 0.0 0.00 0.00 0.00 83 1013.8
20260510074551 59 0 0.0 0.0 0.00 0.00 0.00 82 1013.9
20260510073108 59 0 0.0 0.0 0.00 0.00 0.00 81 1013.9
20260510071549 59 0 0.0 0.0 0.00 0.00 0.00 80 1013.9
20260510070053 60 0 0.0 0.0 0.00 0.00 0.00 80 1013.9
20260510064559 60 0 0.0 0.0 0.00 0.00 0.00 79 1014.0
20260510063048 60 0 0.0 0.0 0.00 0.00 0.00 79 1013.8
20260510061548 60 0 0.0 0.0 0.00 0.00 0.00 78 1013.5
20260510060050 60 0 0.0 0.0 0.00 0.00 0.00 77 1013.3
20260510054546 60 0 0.0 0.0 0.00 0.00 0.00 77 1013.4
20260510053047 60 0 0.0 0.0 0.00 0.00 0.00 76 1013.3
20260510051549 61 0 0.0 0.0 0.00 0.00 0.00 75 1013.3
20260510050039 61 0 0.0 0.0 0.00 0.00 0.00 74 1013.2
20260510044543 62 0 0.0 0.0 0.00 0.00 0.00 73 1013.3
20260510043047 62 0 0.0 0.0 0.00 0.00 0.00 72 1013.2
20260510041548 62 0 0.0 0.0 0.00 0.00 0.00 71 1013.3
20260510040047 63 0 0.0 0.0 0.00 0.00 0.00 71 1013.4
20260510034559 63 0 0.0 0.0 0.00 0.00 0.00 70 1013.5
20260510033052 64 0 0.0 0.0 0.00 0.00 0.00 69 1013.4
20260510031547 64 0 0.0 0.0 0.00 0.00 0.00 68 1013.4
20260510030047 65 0 0.0 0.0 0.00 0.00 0.00 66 1013.4
20260510024545 65 0 0.0 0.0 0.00 0.00 0.00 65 1013.3
20260510023041 66 0 0.0 0.0 0.00 0.00 0.00 63 1013.1
20260510021558 67 0 0.0 0.0 0.00 0.00 0.00 60 1012.9
20260510020047 68 0 0.0 0.0 0.00 0.00 0.00 60 1012.6
20260510014552 69 0 0.0 0.0 0.00 0.00 0.00 57 1012.4
20260510013046 70 0 0.0 0.0 0.00 0.00 0.00 55 1012.2
20260510011544 72 0 0.0 0.0 0.00 0.00 0.00 54 1012.0
20260510010045 73 0 0.0 0.0 0.00 0.00 0.00 52 1011.8
20260510004542 74 0 0.0 0.0 0.00 0.00 0.00 52 1011.7
20260510003103 76 0 0.0 0.0 0.00 0.00 0.00 47 1011.5
20260510001546 77 0 0.0 0.9 0.00 0.00 0.00 45 1011.3
20260510000053 79 0 0.0 1.7 0.00 0.00 0.00 41 1011.2
20260509234544 79 350 0.0 1.7 0.00 0.00 0.00 37 1011.1
20260509233041 80 0 0.0 1.7 0.00 0.00 0.00 35 1011.0
20260509231541 80 0 0.9 2.6 0.00 0.00 0.00 34 1010.9
20260509230041 81 0 0.0 3.5 0.00 0.00 0.00 32 1010.9
20260509224545 81 338 0.9 3.5 0.00 0.00 0.00 33 1010.7
20260509223046 81 335 0.9 5.2 0.00 0.00 0.00 35 1010.7
20260509221559 81 23 0.0 6.1 0.00 0.00 0.00 36 1010.8
20260509220045 81 11 0.0 3.5 0.00 0.00 0.00 36 1010.9
20260509214557 81 0 0.0 4.3 0.00 0.00 0.00 37 1010.8
20260509213041 82 346 0.0 3.5 0.00 0.00 0.00 37 1010.9
20260509211549 82 184 0.0 5.2 0.00 0.00 0.00 32 1010.9
20260509210049 83 0 0.0 4.3 0.00 0.00 0.00 35 1011.0
20260509204546 83 0 0.9 4.3 0.00 0.00 0.00 35 1011.0
20260509203046 82 0 0.9 5.2 0.00 0.00 0.00 36 1011.1
20260509201543 83 20 0.9 4.3 0.00 0.00 0.00 35 1011.1
20260509200046 83 29 0.0 3.5 0.00 0.00 0.00 36 1011.2
20260509194552 82 277 0.9 5.2 0.00 0.00 0.00 36 1011.3
20260509193049 82 59 0.9 3.5 0.00 0.00 0.00 37 1011.3
20260509191547 82 47 0.9 4.3 0.00 0.00 0.00 38 1011.3
20260509190040 81 83 0.9 3.5 0.00 0.00 0.00 38 1011.5
20260509184548 81 5 0.9 4.3 0.00 0.00 0.00 41 1011.5
20260509183100 81 0 1.7 5.2 0.00 0.00 0.00 39 1011.7
20260509181546 81 261 0.0 6.1 0.00 0.00 0.00 43 1011.8